Location: Hiram
(41.3130°N, 81.1440°W)
Time: 03:07:16
(UTC-04:00)

Iridium 62 - Visible Passes

Search period start: 30 March 2015 00:00
Search period end: 09 April 2015 00:00
Orbit: 776 x 779 km, 86.4° (Epoch: 29 March)

Date Brightness Start Highest point End Pass type
(mag) Time Alt. Az. Time Alt. Az. Time Alt. Az.
30 Mar 8.5 02:46:16 14° N 02:46:16 14° N 02:46:58 10° N visible
31 Mar 8.6 02:12:46 13° NNE 02:12:46 13° NNE 02:13:20 10° NNE visible
01 Apr 8.8 01:39:16 10° NNE 01:39:16 10° NNE 01:39:22 10° NNE visible
01 Apr 8.5 03:19:44 12° NNW 03:19:44 12° NNW 03:20:09 10° NNW visible
02 Apr 8.4 02:46:13 14° N 02:46:13 14° N 02:47:00 10° N visible
03 Apr 8.5 02:12:42 15° N 02:12:42 15° N 02:13:32 10° N visible
04 Apr 8.6 01:39:11 13° NNE 01:39:11 13° NNE 01:39:46 10° NNE visible
04 Apr 8.5 03:19:39 11° NNW 03:19:39 11° NNW 03:19:47 10° NNW visible
05 Apr 8.4 02:46:07 14° NNW 02:46:07 14° NNW 02:46:54 10° NNW visible
06 Apr 8.4 02:12:35 16° N 02:12:35 16° N 02:13:37 10° N visible
07 Apr 8.4 01:39:03 16° NNE 01:39:03 16° NNE 01:40:02 10° N visible
08 Apr 8.5 01:05:30 13° NNE 01:05:30 13° NNE 01:06:08 10° NNE visible
08 Apr 8.4 02:45:58 13° NNW 02:45:58 13° NNW 02:46:40 10° NNW visible
